Wind_Speed
11 12 14 14 13 12 12 12 12 11 11 11 11 10 10 10 10 9 9 8 8 8 8 7 7 6 5 5 5 5 2 1 3 4 5 4 5 3 7 6 4 5 8 9 9 7 6 4 4 5 3 2 1 0 1 1 2 1 1 2 2 3 3 5 4 3 3 1 1 3 3 4 2 2 1 2 5 6 6 5 5 8 11 12 16 20 22 22
12 13 14 14 13 12 12 12 12 12 11 11 11 10 10 10 10 9 9 9 8 9 8 7 7 5 5 4 4 3 1 2 5 5 4 5 5 3 6 5 4 6 10 9 6 7 6 3 5 5 3 1 1 0 1 0 1 1 2 2 2 3 3 4 3 2 1 0 2 1 3 3 2 0 1 2 3 5 6 4 5 9 11 14 17 20 23 26
12 13 13 13 13 12 12 12 12 12 12 11 11 11 11 11 10 10 10 9 9 9 9 8 7 5 5 4 3 2 1 4 5 3 2 3 4 1 2 2 3 6 12 9 5 5 5 5 8 7 2 1 0 1 2 1 1 1 1 2 3 3 3 1 1 3 3 2 4 1 2 3 1 1 2 4 4 5 5 3 4 7 9 10 12 15 20 25
12 13 13 13 13 12 12 13 12 12 12 12 12 11 11 11 11 10 10 10 10 10 9 7 6 6 4 4 3 3 1 3 2 4 2 2 3 0 2 2 3 7 10 6 4 3 1 4 8 6 2 1 1 1 2 2 2 1 2 3 3 2 2 5 4 3 3 3 5 2 2 3 2 2 2 5 5 4 3 4 4 7 9 9 9 12 17 20
12 13 13 13 12 12 13 13 13 12 13 12 12 12 12 12 11 11 11 11 10 8 6 5 5 5 4 4 3 3 2 2 1 3 4 3 2 1 2 2 4 8 8 5 3 2 2 4 6 5 2 2 1 1 2 3 2 1 2 4 3 2 2 5 4 2 3 3 4 3 3 2 1 3 3 4 4 1 3 6 8 9 10 9 9 12 15 17
12 13 13 13 13 13 13 13 13 13 13 13 12 12 12 12 11 12 12 11 8 6 5 5 4 4 5 4 4 2 3 2 1 4 6 5 1 4 3 1 3 7 7 4 2 2 3 4 4 4 3 2 3 3 2 3 3 1 3 4 5 4 3 3 1 1 3 5 4 3 2 1 3 4 4 6 6 5 7 9 10 11 11 11 12 13 14 15
12 13 14 14 13 13 13 13 13 13 13 13 12 13 12 12 12 13 12 9 6 5 5 4 3 4 6 7 5 2 4 2 3 4 6 5 4 4 2 1 3 6 7 3 3 3 3 5 4 4 4 2 3 4 3 2 3 3 3 4 5 6 5 4 3 2 4 6 4 4 4 3 4 4 4 8 8 9 10 10 12 12 13 15 15 14 14 14
13 14 14 14 14 14 13 13 14 13 13 13 12 13 12 13 13 12 10 7 5 6 4 3 4 6 9 8 5 3 3 1 4 4 5 5 6 3 2 2 3 5 5 2 3 2 2 4 4 3 3 3 3 3 2 2 1 5 5 3 2 4 5 5 5 4 4 4 3 5 6 3 5 6 5 8 9 9 10 10 11 11 14 16 15 14 13 14
13 14 15 14 14 14 14 14 14 14 14 13 13 13 13 14 12 7 6 5 4 4 1 4 6 9 9 6 4 4 1 1 4 4 4 4 4 3 2 2 3 4 5 1 1 1 1 2 4 3 4 4 3 2 1 3 1 5 6 3 1 2 3 4 5 5 5 3 3 5 3 3 5 6 5 8 10 9 10 11 10 11 14 14 12 13 13 14
13 14 14 14 13 13 14 14 15 15 15 13 13 14 14 13 7 2 4 5 3 2 3 7 9 11 9 3 4 4 0 3 6 5 2 1 1 2 3 3 3 4 4 2 2 1 2 3 3 3 4 2 2 2 1 4 2 3 4 3 1 4 4 3 5 5 4 3 4 6 4 3 3 2 3 6 9 9 12 12 11 13 13 12 11 12 14 16
12 14 15 13 13 13 14 14 15 15 14 14 14 14 14 9 2 3 5 5 3 0 6 9 11 11 7 2 5 4 1 4 6 5 2 0 1 2 3 5 4 3 2 0 3 1 2 4 4 4 1 1 2 1 1 3 1 1 2 2 1 4 4 0 4 6 3 2 5 7 3 1 1 1 3 8 7 9 13 12 11 13 11 11 12 11 13 16
12 14 14 13 12 13 13 14 14 14 15 15 15 14 10 3 3 4 5 4 3 4 9 12 13 10 5 6 5 2 2 4 5 4 2 1 2 2 1 3 3 4 3 3 5 3 1 2 4 4 1 2 2 0 1 2 2 1 2 1 4 6 4 2 3 4 3 3 5 6 3 1 1 3 4 10 8 10 14 12 11 12 10 10 11 10 12 15
12 14 14 12 12 13 13 14 14 14 15 15 14 10 3 4 4 4 3 4 5 8 10 12 12 5 4 5 2 3 4 4 3 2 2 1 2 3 2 1 2 3 3 5 5 5 5 3 6 5 2 4 1 1 1 1 2 1 2 2 2 5 4 5 3 3 4 3 6 6 1 3 1 4 7 9 8 12 14 11 10 9 9 9 9 10 11 15
12 14 13 12 12 13 13 14 13 14 15 13 10 3 6 7 6 4 4 7 9 10 10 9 7 1 4 3 1 4 4 4 3 3 5 5 2 3 3 3 4 3 2 4 5 6 6 5 7 4 1 3 1 1 4 4 2 2 1 2 1 1 4 6 3 5 5 3 5 7 2 5 1 4 3 6 6 13 13 10 10 9 8 9 9 10 10 14
12 13 12 12 13 13 14 13 13 14 12 9 4 5 7 6 6 4 4 8 11 11 9 7 4 2 5 3 1 4 4 4 6 7 7 7 4 3 2 4 5 3 2 2 3 5 5 5 6 3 0 2 4 4 4 4 3 3 1 2 1 3 4 7 4 7 8 3 3 7 2 4 2 6 3 4 6 12 14 10 10 10 10 10 9 10 9 11
12 12 11 12 13 14 14 14 14 11 8 5 4 7 7 6 6 5 6 9 12 10 7 4 2 3 5 1 1 4 4 5 6 7 5 6 6 4 2 4 4 5 4 3 3 3 4 4 3 2 2 2 4 4 3 3 3 3 2 3 2 3 2 5 5 6 10 4 1 4 2 2 2 6 5 7 8 11 13 10 11 10 10 10 8 9 8 9
13 12 11 13 14 14 14 13 11 7 5 4 7 8 8 8 7 8 9 9 9 7 5 4 2 4 4 1 2 2 3 5 6 7 5 4 6 5 3 3 3 5 5 5 4 3 4 4 1 1 2 3 3 4 3 1 2 2 1 2 2 3 2 2 5 3 6 7 3 2 5 4 3 6 8 8 7 11 12 10 10 9 9 10 8 9 9 9
12 11 12 13 14 13 12 11 9 5 4 7 10 11 13 15 13 11 8 5 5 4 4 4 3 3 2 2 1 2 3 4 7 9 6 3 4 4 4 3 3 5 5 5 4 3 3 3 2 1 2 2 2 4 3 4 4 4 3 2 1 1 2 2 4 2 4 7 5 6 6 5 5 7 8 9 7 12 12 10 10 10 10 10 9 9 9 10
11 11 13 14 13 11 11 9 6 3 6 9 11 11 12 13 14 15 14 9 4 3 2 2 2 3 1 1 1 2 3 4 5 9 9 6 4 3 3 4 4 5 4 3 2 1 2 3 3 3 2 4 4 5 6 5 4 5 4 4 3 2 2 4 5 4 3 5 5 7 7 6 6 6 8 8 8 12 11 10 9 9 9 9 8 8 8 9
10 12 13 12 10 9 10 9 4 3 6 8 8 6 5 4 6 7 12 11 4 2 3 1 1 4 3 2 2 3 5 6 5 9 13 10 5 3 3 4 5 5 3 3 1 0 3 4 2 4 5 6 5 5 5 3 2 1 2 2 2 3 3 5 4 6 2 4 1 6 10 7 6 6 6 6 8 11 10 9 9 8 8 8 8 8 8 9
10 12 12 10 8 8 10 9 4 4 4 5 4 3 2 2 4 1 2 6 4 5 6 2 3 5 3 2 3 2 2 6 7 11 15 10 3 3 2 3 5 3 1 2 2 2 4 4 4 5 6 6 5 5 4 3 2 1 0 1 2 3 4 6 3 5 4 2 2 7 11 7 5 6 6 6 9 10 8 8 8 8 8 7 8 9 8 7
11 13 11 8 6 7 9 9 6 4 2 2 5 6 3 2 4 4 3 5 4 7 6 4 5 5 3 3 5 3 3 6 7 10 15 12 5 2 1 4 4 2 1 2 3 4 4 2 6 6 5 4 2 3 5 4 4 2 2 3 3 3 2 5 4 4 5 2 3 6 9 5 5 7 7 8 9 7 7 8 8 8 8 8 8 8 8 8
12 13 11 7 5 6 8 9 6 3 2 6 9 7 4 3 4 3 3 5 2 5 5 5 5 4 5 5 7 6 5 5 3 7 14 11 4 2 2 3 3 2 1 3 4 4 2 2 5 3 2 4 3 3 4 3 1 2 3 4 3 3 1 2 4 4 5 4 5 7 7 3 3 5 7 7 7 7 8 10 9 8 8 8 8 8 9 10
12 13 10 5 3 4 7 8 7 7 9 13 14 8 4 3 3 1 3 4 2 2 2 1 3 3 3 3 7 5 4 3 1 5 12 8 2 1 2 3 3 2 2 5 6 5 2 3 3 4 3 6 5 6 4 4 2 1 2 4 3 2 2 3 3 3 4 4 6 8 4 1 3 3 4 5 5 7 7 8 9 8 7 8 8 9 9 10
12 12 8 5 3 2 4 6 7 8 9 11 11 6 4 4 1 1 2 4 2 2 2 1 1 3 2 4 7 3 4 3 1 4 8 6 2 1 1 1 3 2 2 5 6 4 1 4 3 3 5 6 6 5 4 2 3 1 1 2 4 4 4 3 2 1 3 1 2 5 1 3 2 3 3 3 4 6 6 7 9 7 7 8 8 9 9 8
12 10 6 6 3 3 3 3 3 3 5 5 5 3 5 4 1 1 3 5 3 3 2 1 1 3 4 6 7 1 4 2 2 4 8 8 3 2 2 1 2 1 2 4 4 2 2 5 4 4 4 7 6 4 3 1 4 1 1 2 3 3 3 3 4 3 2 3 2 3 3 3 1 2 4 4 4 6 5 7 8 7 7 7 7 7 8 8
11 8 5 7 5 3 5 3 2 2 3 3 3 4 5 3 2 1 3 5 3 1 1 0 1 3 4 5 5 2 3 4 3 6 9 9 5 1 3 2 1 2 1 3 2 1 2 6 7 6 5 5 4 2 2 1 4 2 1 1 1 5 5 2 4 2 2 2 2 1 3 3 3 2 5 6 5 5 5 6 7 6 7 7 7 7 8 8
10 6 4 5 8 5 5 5 4 3 2 1 3 5 6 3 1 1 5 4 1 1 2 1 1 3 2 5 7 4 1 3 1 4 8 10 7 2 4 3 2 2 3 3 3 1 2 4 5 5 5 4 1 1 3 1 3 2 2 1 3 6 5 3 4 2 1 1 2 3 2 1 4 1 4 4 3 2 4 6 6 6 7 7 7 7 7 7
7 6 4 3 6 8 7 7 6 4 3 3 5 7 6 3 0 4 5 2 1 1 1 1 1 2 3 5 8 4 3 3 1 4 8 9 9 5 3 1 2 4 6 5 5 1 1 1 1 4 4 2 2 4 4 1 0 1 2 3 4 4 4 5 5 3 2 1 5 6 3 1 3 2 3 4 3 1 4 5 5 6 6 6 7 7 7 6
5 7 6 3 3 4 6 8 8 5 4 5 7 7 5 2 3 6 2 2 1 1 0 1 1 2 4 5 5 5 5 4 2 4 5 5 8 8 2 1 3 5 6 7 6 1 2 3 1 4 2 2 3 4 3 3 3 1 4 4 4 4 4 4 2 4 2 3 5 5 5 3 3 1 2 1 1 1 4 5 5 6 7 6 6 6 6 6
6 9 8 6 4 3 3 4 6 5 5 7 6 4 3 2 4 5 1 2 1 1 1 3 2 3 5 4 2 4 5 5 6 5 5 5 7 8 5 2 3 5 4 5 4 3 5 5 3 2 3 2 2 2 1 2 3 3 3 4 3 3 4 4 4 3 1 5 3 2 4 4 4 2 2 3 4 3 3 6 6 7 6 6 5 5 5 5
8 10 10 9 7 6 5 3 3 4 5 6 4 2 4 3 2 2 2 2 1 1 1 1 2 3 4 4 3 4 3 4 6 5 4 4 4 5 5 1 0 3 2 1 2 4 4 3 3 5 4 5 4 1 2 5 5 4 3 4 3 1 2 2 2 0 3 5 3 2 1 2 3 1 2 4 6 6 5 6 7 7 6 5 4 4 4 4
8 9 10 11 9 8 8 5 4 4 5 6 2 4 6 4 1 2 1 2 0 1 2 2 2 3 4 4 3 4 2 2 4 5 3 3 4 4 4 3 1 3 2 2 2 3 2 3 6 6 4 5 4 1 0 2 3 3 3 4 3 2 1 2 2 0 3 4 3 2 1 2 1 1 3 4 5 6 7 8 7 7 6 5 5 4 4 4
9 10 10 11 11 10 8 6 4 5 6 4 3 5 6 2 3 1 0 2 2 1 2 2 2 4 5 4 1 2 3 3 2 4 4 3 4 3 3 5 5 2 2 2 2 2 2 2 4 4 2 4 5 2 0 1 1 2 2 4 3 4 3 3 3 2 3 3 4 3 1 2 1 1 1 3 5 6 7 6 6 6 5 4 4 4 4 4
10 12 12 12 12 11 9 6 4 5 5 3 6 6 3 4 3 2 1 3 2 1 2 2 4 5 5 3 2 1 2 1 2 5 5 3 3 1 3 4 5 3 3 2 1 2 3 2 4 2 2 3 4 3 2 1 0 1 1 3 2 2 3 2 3 3 2 1 3 2 1 0 2 1 1 3 5 5 6 5 5 5 4 4 4 3 4 4
9 10 11 13 13 11 9 6 5 4 3 5 6 2 4 4 3 2 2 1 1 2 2 3 4 5 2 3 3 3 1 1 2 3 4 2 2 1 1 2 3 4 3 3 1 1 3 1 4 4 2 4 2 3 3 2 2 0 2 1 1 2 5 3 2 1 2 0 1 2 1 0 2 1 1 3 4 4 5 4 4 4 4 4 3 3 3 4
7 7 8 12 14 11 8 5 4 3 3 6 5 2 4 2 2 2 1 0 1 3 4 2 1 2 1 1 2 4 3 1 2 2 1 1 1 1 1 3 2 3 2 1 1 2 4 1 3 2 1 2 3 1 2 3 2 3 1 2 1 1 4 3 0 2 2 2 2 1 3 2 2 1 2 0 4 5 4 4 4 4 4 4 3 3 3 3
4 5 6 12 14 10 6 4 3 4 5 6 4 2 2 1 1 0 1 0 1 2 3 3 1 1 3 3 2 3 2 0 1 3 2 1 1 2 1 3 2 2 3 1 1 0 3 2 3 2 1 4 6 2 0 4 4 3 2 1 2 2 1 1 2 1 1 2 2 3 2 1 2 1 0 3 7 6 5 5 4 4 4 4 4 4 3 3
2 3 3 10 12 8 5 2 2 5 6 4 2 2 2 1 0 1 1 1 2 2 2 3 2 1 1 3 4 1 2 1 1 2 2 1 0 2 2 1 2 3 5 1 2 1 2 4 2 4 2 3 5 4 1 5 6 3 2 3 2 3 3 1 2 2 2 2 2 3 3 2 1 1 1 6 8 7 6 5 4 5 5 4 4 4 3 3
2 3 2 9 10 6 5 4 5 6 5 3 4 2 1 1 1 2 3 2 1 1 1 3 2 3 2 2 3 2 1 2 2 2 1 1 1 1 1 0 2 4 6 3 3 1 2 4 2 4 5 3 3 2 1 1 3 3 3 3 3 2 0 1 1 1 3 2 2 1 3 3 2 1 2 5 7 7 7 6 5 4 4 4 4 4 3 3
3 3 2 9 8 3 4 8 7 4 4 3 2 2 1 2 2 2 5 4 3 1 1 3 3 3 3 2 2 2 2 3 2 2 1 0 2 1 1 1 1 3 3 3 3 2 2 3 3 1 4 4 1 2 2 1 2 2 1 0 0 1 1 2 2 3 2 2 3 3 3 4 1 0 3 2 6 6 6 6 4 3 4 4 4 4 4 4
4 2 2 9 5 0 5 7 3 3 4 2 1 1 2 3 2 2 4 4 3 2 3 4 3 2 3 2 2 2 3 2 1 2 1 0 1 1 1 0 1 2 1 2 1 1 2 4 4 2 1 1 2 3 2 2 2 3 2 1 2 1 3 5 3 3 1 1 0 2 2 5 2 2 3 1 4 5 5 6 5 4 4 4 4 4 4 4
3 3 2 8 2 3 8 5 2 4 3 1 0 2 3 3 2 2 3 4 3 1 3 2 2 2 2 2 2 3 3 2 1 2 2 1 1 1 2 4 2 1 2 1 1 2 2 4 4 2 4 4 4 4 4 3 4 4 1 2 3 1 3 5 5 3 2 1 0 1 3 4 3 3 2 2 4 4 4 5 6 5 4 4 5 5 4 4
2 3 2 8 3 3 4 3 1 2 1 0 3 3 3 3 2 2 2 2 2 1 3 1 0 2 1 2 4 3 2 2 1 1 2 2 0 1 3 5 3 2 2 2 2 1 1 1 4 3 3 5 5 5 5 4 3 3 0 1 2 4 5 3 1 4 1 3 4 4 4 5 3 3 1 3 4 4 4 4 6 6 5 6 5 5 4 4
3 1 2 8 9 5 3 3 5 5 4 3 4 2 2 3 2 1 2 2 2 2 3 1 0 3 3 3 5 4 3 3 2 0 2 2 1 2 3 6 4 2 1 1 2 2 2 2 3 5 3 2 2 2 4 3 1 1 1 2 2 4 4 2 1 4 1 3 3 4 4 4 4 4 1 3 4 4 4 4 5 5 6 6 6 5 5 5
3 1 2 5 8 7 2 0 5 6 5 5 4 1 2 3 0 0 3 3 2 2 3 2 1 3 4 4 5 4 5 4 3 3 3 2 1 1 3 5 4 2 1 4 7 5 4 3 2 6 6 5 6 5 4 1 2 2 0 1 2 2 4 4 4 2 4 2 1 5 5 1 5 6 4 3 3 4 5 5 6 6 6 6 6 5 5 5
2 2 1 1 3 3 4 4 4 4 4 5 3 2 3 3 1 1 2 1 1 3 4 3 2 2 2 3 5 2 3 5 4 4 2 1 1 2 4 3 5 6 3 4 5 4 5 3 1 5 3 3 5 3 3 2 3 3 3 2 2 1 4 5 4 4 4 4 3 7 3 2 6 7 5 6 4 3 5 6 7 8 6 5 5 6 6 5
1 2 2 1 1 1 2 1 3 5 5 5 3 2 4 4 2 1 1 1 2 2 3 2 4 3 2 4 6 3 1 3 4 2 1 1 1 2 4 3 3 6 4 4 4 3 6 2 2 3 2 2 1 2 3 3 2 1 2 4 4 2 3 5 6 6 5 4 5 4 3 3 8 5 5 7 6 6 7 7 6 5 4 5 5 6 6 6
2 3 1 2 2 3 2 2 5 7 6 5 3 2 4 5 4 2 0 2 2 3 3 3 0 3 2 3 6 5 4 3 2 2 3 3 2 2 2 1 2 3 4 4 3 3 5 2 2 3 3 4 5 5 3 3 1 2 3 5 5 5 6 6 5 5 6 6 8 4 4 11 10 5 7 9 8 6 5 3 3 4 5 6 7 7 7 7
2 3 2 3 4 2 2 3 5 6 4 3 2 2 4 5 5 3 1 2 1 2 2 6 5 2 3 4 6 4 6 5 5 6 6 5 2 2 2 2 2 2 5 3 2 2 3 2 2 4 4 3 5 4 3 2 1 4 6 6 6 5 6 6 5 4 5 7 7 4 6 11 7 4 6 7 5 3 2 2 3 4 6 7 8 8 8 8
3 4 6 6 4 1 2 3 3 5 2 1 2 4 3 4 6 5 1 1 3 2 1 7 9 4 4 6 7 2 4 5 5 5 7 7 4 4 2 2 4 3 3 2 2 3 3 2 1 5 4 2 3 4 4 4 2 5 9 9 9 7 5 5 5 5 6 5 3 1 4 7 4 1 3 4 3 3 4 4 4 4 6 8 9 10 9 9
5 4 4 6 3 1 1 2 3 3 2 1 3 3 2 4 6 5 4 0 1 1 2 7 9 5 5 7 5 1 3 4 6 5 6 6 5 5 4 3 5 5 2 2 2 2 3 4 2 3 2 4 3 3 4 5 5 5 9 8 9 8 5 4 3 5 7 6 4 3 5 5 2 1 1 2 3 4 6 5 5 5 6 7 8 8 8 8
Wind_Direction
2 358 353 349 346 347 344 343 341 340 338 334 332 329 327 329 328 326 322 318 316 316 316 310 312 312 312 317 321 323 314 87 89 94 88 51 15 70 133 144 146 178 186 171 164 147 119 116 118 124 105 78 73 129 167 90 100 105 156 205 201 169 176 189 190 202 182 180 245 328 5 104 95 349 80 78 53 78 83 66 77 72 68 58 53 55 59 61
1 356 353 349 345 346 345 343 341 340 339 333 330 326 325 328 325 324 321 317 314 312 310 304 302 297 300 307 311 315 308 99 89 79 68 50 29 99 128 146 172 187 183 166 146 140 138 155 147 129 89 62 10 82 138 301 157 156 180 210 209 176 193 176 164 213 194 169 170 346 359 80 107 289 39 71 49 73 87 72 97 89 69 51 45 47 53 59
0 356 353 349 345 345 343 343 341 339 337 333 329 325 325 326 323 322 319 315 311 308 306 300 290 281 289 288 280 275 192 98 85 43 16 61 48 155 169 187 184 178 176 157 117 140 174 187 156 140 87 81 294 67 121 239 188 196 211 207 210 192 250 282 254 236 214 164 137 90 349 49 5 305 57 105 79 65 91 78 114 107 78 55 39 36 44 52
359 355 351 347 345 345 344 343 339 335 333 330 328 326 325 323 322 319 317 314 311 309 304 300 287 266 261 264 256 229 192 76 51 331 335 60 36 174 186 219 195 175 175 152 114 120 178 183 160 148 109 98 287 26 141 219 178 160 182 200 228 176 252 282 275 223 178 138 134 135 61 53 349 13 75 125 93 57 87 46 60 97 85 66 44 36 39 44
357 355 351 347 344 345 344 340 336 333 330 329 328 325 324 322 321 318 315 315 313 311 306 306 288 253 233 239 233 216 188 88 355 347 15 21 8 135 146 205 190 181 183 160 131 97 88 146 141 137 134 131 202 163 174 207 154 133 214 219 242 158 190 260 262 174 136 98 104 102 90 99 360 30 33 111 109 75 80 60 62 73 72 65 51 44 40 41
356 355 351 345 343 344 343 337 333 332 328 329 328 325 324 321 320 317 317 318 314 309 302 296 273 236 214 202 190 187 141 134 332 25 29 17 78 137 142 205 184 185 188 165 105 66 88 95 106 144 155 137 178 196 219 218 163 179 259 234 226 204 213 245 246 191 140 101 111 143 137 84 75 57 27 67 94 84 74 76 74 67 66 68 58 50 42 40
356 353 348 344 341 340 339 335 332 330 327 327 327 325 323 321 318 317 319 319 313 311 302 274 234 205 185 169 160 92 95 104 345 35 40 55 127 137 138 156 161 183 180 139 53 60 92 81 106 151 128 128 184 200 226 217 175 199 251 256 222 211 220 210 174 191 146 132 164 145 103 90 106 101 64 77 94 92 85 82 78 72 63 61 56 50 46 42
355 350 345 341 338 337 336 333 330 328 326 325 326 325 323 320 316 318 320 315 319 319 299 214 195 181 169 165 152 64 62 9 2 43 54 94 135 130 130 113 114 170 165 108 36 38 69 104 147 148 121 177 184 195 223 150 165 214 225 255 221 205 218 201 170 169 148 148 157 102 99 158 151 109 96 114 110 100 94 82 76 73 58 53 52 48 45 42
352 347 342 338 335 335 333 330 328 326 326 324 325 324 321 320 318 321 319 320 338 321 270 158 171 165 162 167 122 71 43 326 22 37 56 107 135 104 101 90 98 143 154 168 350 45 63 148 184 163 160 194 186 216 209 133 214 228 216 237 251 278 246 179 163 171 157 159 134 110 120 191 160 108 93 122 119 111 95 77 69 67 58 52 51 47 45 42
348 344 339 334 332 333 331 330 327 326 327 325 325 322 318 321 323 345 348 355 360 311 138 146 161 159 168 172 79 86 144 54 35 28 55 102 147 107 68 61 113 138 163 228 329 124 177 208 202 143 145 161 184 217 126 144 214 253 218 211 217 319 294 172 175 192 167 181 166 151 178 207 177 122 102 128 128 115 90 74 65 67 63 56 55 49 46 43
345 340 336 333 332 333 332 331 328 328 328 327 326 320 320 325 359 52 20 24 8 132 137 148 153 150 161 113 88 120 118 51 35 29 61 91 85 115 63 63 104 111 129 352 12 3 233 230 182 110 118 174 175 217 108 152 154 252 176 136 316 344 335 189 176 195 164 188 182 150 150 149 63 334 140 136 130 106 88 77 68 70 70 61 59 52 46 43
340 338 337 335 334 334 334 333 330 328 327 327 324 321 327 354 98 54 32 43 44 116 140 149 148 143 115 76 77 106 58 35 32 38 69 145 105 119 78 53 82 84 82 69 39 37 104 191 139 111 196 168 138 140 185 179 130 170 105 90 302 1 360 267 192 196 172 182 185 135 90 4 357 346 112 122 117 96 86 79 71 69 69 62 59 55 49 42
339 340 339 336 335 335 335 333 331 328 326 326 325 329 11 100 82 44 52 75 84 116 138 148 149 146 77 74 32 54 61 43 40 57 69 74 129 125 129 126 103 89 71 74 55 52 86 123 128 134 143 113 151 243 143 144 112 138 72 84 309 3 333 258 211 181 179 188 179 143 165 267 346 45 99 119 117 96 85 79 77 72 66 62 57 56 51 42
341 340 338 336 337 336 336 335 332 328 326 329 337 23 108 100 76 65 89 104 108 118 134 145 152 140 70 89 343 59 63 60 72 62 48 40 106 127 110 110 110 105 73 82 69 56 81 107 105 111 84 104 171 345 32 4 49 113 41 38 37 291 282 272 226 162 176 227 167 144 225 242 108 28 91 131 120 99 91 83 79 74 67 63 56 57 51 44
342 340 342 341 338 337 337 335 333 330 331 344 17 113 123 106 95 81 93 123 128 131 141 141 153 121 78 70 25 69 59 63 63 44 32 31 59 90 97 106 96 85 90 101 80 57 84 109 93 89 284 38 44 46 29 351 10 62 87 329 315 199 262 297 273 176 180 233 159 143 209 224 95 355 352 107 97 93 93 85 76 71 66 62 53 53 49 42
344 346 348 343 340 339 336 335 336 337 348 17 88 128 124 109 106 98 102 131 138 139 135 114 137 116 90 90 54 58 42 38 34 32 34 34 41 37 79 118 94 85 103 98 101 80 66 79 88 120 134 51 64 77 49 18 344 2 124 210 233 195 252 309 292 211 186 181 175 163 160 175 52 6 17 66 76 86 89 82 74 70 64 61 54 49 45 38
346 351 349 345 342 339 338 340 344 354 26 79 115 117 106 94 96 112 113 121 128 125 105 83 103 96 67 21 51 11 357 25 18 20 36 38 30 33 76 111 89 83 91 79 81 69 33 42 90 126 66 62 96 94 67 69 270 297 166 204 226 186 181 292 308 278 181 174 189 104 94 100 50 24 30 38 64 85 84 79 74 69 65 63 57 50 43 37
349 352 350 346 343 342 345 349 355 21 80 116 121 110 100 90 88 99 103 120 125 92 82 59 53 80 28 352 42 302 323 14 16 21 31 36 25 35 54 75 93 75 59 46 44 48 23 22 69 80 51 78 133 123 154 207 209 204 192 190 238 226 190 237 286 291 166 182 170 100 87 97 64 40 43 29 44 79 81 80 74 66 66 62 56 53 44 40
354 356 350 345 347 353 357 359 7 65 120 128 127 119 107 91 80 72 60 65 81 62 81 357 16 114 126 10 341 351 20 11 10 23 26 19 9 31 53 60 83 77 64 44 11 62 80 44 67 110 165 186 187 176 188 200 178 178 170 145 160 193 247 245 257 264 173 161 162 133 124 112 77 45 47 36 45 73 75 71 70 63 61 58 55 53 45 44
0 358 350 349 357 6 9 9 24 105 128 136 140 129 117 90 68 44 36 49 57 72 93 9 45 96 81 52 350 23 50 44 43 26 17 7 358 41 57 39 45 46 69 127 156 200 92 92 161 193 198 198 192 199 203 185 128 121 119 130 173 179 261 270 265 293 251 139 136 125 116 95 75 46 33 37 50 62 62 63 62 57 56 53 54 50 44 47
2 356 351 356 11 23 22 19 43 111 123 143 146 103 129 118 92 141 33 57 36 51 76 42 60 83 84 82 12 12 68 43 34 18 13 9 17 69 29 30 59 41 315 161 139 14 64 114 217 225 207 204 200 201 204 230 244 310 138 229 250 207 251 265 241 311 320 115 74 107 105 72 56 50 28 41 56 52 52 64 63 58 59 52 49 47 42 43
358 354 355 6 28 41 33 25 46 103 122 109 86 82 118 108 100 146 135 92 30 33 60 32 46 57 42 62 26 21 78 36 13 1 6 8 30 80 15 56 98 170 280 106 91 37 48 184 242 246 216 206 261 227 200 227 231 202 176 181 248 244 256 284 276 335 357 87 137 128 106 69 54 62 50 54 66 63 57 66 68 62 62 53 47 44 37 35
355 355 357 13 44 57 50 35 41 85 98 91 86 84 100 85 101 134 100 101 53 18 38 37 55 32 10 35 21 33 71 46 5 334 352 5 26 60 67 80 108 149 98 115 124 110 110 254 268 278 201 155 37 347 186 196 223 168 165 164 222 258 155 285 300 339 9 65 134 129 102 97 99 69 61 62 74 80 70 68 68 63 65 61 54 48 41 36
357 355 357 15 49 72 71 55 54 77 88 91 86 81 107 114 120 132 76 88 72 2 12 56 91 54 21 15 8 46 90 55 78 325 347 13 35 7 81 125 106 94 172 155 135 121 147 284 324 14 62 124 101 39 71 133 124 74 113 143 191 233 198 228 271 319 16 55 119 117 88 187 169 118 86 84 81 77 69 69 64 57 62 62 57 51 45 42
359 353 357 17 33 123 106 64 56 72 86 86 77 78 129 149 149 71 83 75 43 316 335 335 84 33 357 349 354 46 106 47 57 312 340 14 345 302 70 122 98 83 218 144 115 95 20 304 341 49 50 73 103 64 26 139 150 38 72 160 210 210 209 223 239 16 54 305 185 129 140 284 157 145 135 113 81 69 60 63 63 55 55 54 51 47 41 43
358 353 7 18 15 177 167 63 54 85 87 67 53 88 146 157 124 65 87 67 16 298 348 358 45 7 341 347 341 21 83 15 304 354 1 1 326 174 90 342 76 93 191 133 111 101 358 335 24 88 83 64 83 83 3 140 134 128 180 195 233 177 150 172 165 137 145 237 253 143 202 257 310 189 165 129 91 81 69 64 64 58 56 53 50 48 40 37
357 1 24 22 25 162 174 105 111 142 94 47 50 117 154 157 120 75 67 53 356 284 72 308 18 26 346 344 346 90 97 288 303 27 15 3 335 168 80 359 28 18 306 110 89 78 347 352 22 49 70 68 72 79 340 94 123 172 218 147 77 86 87 134 148 154 205 243 325 135 188 248 269 219 155 133 99 81 75 71 70 63 62 59 54 51 46 41
360 15 35 34 45 90 144 123 112 110 96 111 112 137 161 160 167 90 77 78 309 8 70 308 347 27 346 10 30 79 154 298 39 9 356 21 16 31 74 35 108 44 349 110 143 281 11 21 24 49 64 66 100 230 280 358 107 193 211 119 83 93 93 90 95 76 346 49 286 248 148 232 257 173 129 155 136 100 97 85 75 68 64 61 57 51 47 45
12 35 40 61 64 73 98 99 91 87 82 108 122 146 161 162 175 61 74 126 275 32 58 357 11 350 345 21 28 30 10 11 90 317 340 29 26 33 85 10 122 89 17 77 132 227 41 51 73 91 70 15 276 272 270 239 136 187 122 78 48 65 71 67 84 76 39 55 239 231 160 189 246 146 148 204 224 169 118 94 84 81 71 63 58 50 45 41
41 54 51 105 103 68 81 73 65 73 83 104 128 149 150 116 56 61 53 232 86 54 300 24 5 345 18 46 24 6 25 16 330 342 358 18 10 19 58 308 81 85 31 49 78 53 339 327 9 79 46 279 275 289 257 220 256 358 68 55 28 23 41 44 46 73 58 267 239 208 177 189 240 202 142 197 307 148 136 124 113 96 79 70 61 51 48 40
73 65 61 85 83 64 82 55 49 74 102 119 133 140 111 50 62 91 200 248 84 29 17 23 342 16 43 78 54 360 17 0 342 10 20 5 5 14 18 353 39 56 30 30 41 11 3 5 0 350 335 352 360 331 333 341 346 48 65 68 50 351 16 25 360 50 170 250 252 211 185 183 222 242 70 44 19 34 122 136 121 101 83 76 70 60 58 48
90 74 69 71 67 71 80 58 55 85 121 141 137 83 83 52 27 150 256 324 9 295 54 51 341 40 56 62 37 346 350 3 8 39 46 31 34 30 34 35 165 65 30 295 26 15 5 5 339 321 338 29 29 340 353 1 22 69 92 89 91 337 11 14 325 177 225 252 269 282 242 166 212 235 65 54 40 42 73 101 106 105 99 90 86 74 67 60
97 82 73 62 57 64 64 53 61 97 140 152 121 46 78 86 240 209 295 344 165 270 69 89 45 55 70 56 12 330 11 25 12 35 45 71 72 47 40 42 100 134 172 196 109 37 345 317 349 354 347 15 35 90 4 340 14 54 122 124 137 150 130 234 238 260 266 273 281 277 220 192 196 77 63 65 70 67 75 89 100 109 114 111 104 93 79 68
94 80 69 55 48 49 49 42 63 119 147 144 72 57 81 145 226 151 355 258 219 349 33 87 65 44 51 61 308 301 55 43 14 43 29 40 58 21 352 6 21 78 114 97 118 111 116 270 340 15 325 348 27 56 124 212 335 332 171 129 132 159 162 197 191 190 238 274 301 281 219 222 176 80 40 80 90 91 91 103 116 117 121 119 105 96 84 69
92 74 61 49 41 37 39 49 88 127 141 94 62 73 119 213 226 133 180 234 232 341 23 49 70 54 21 4 341 318 114 81 42 59 33 33 79 35 337 341 357 29 85 104 164 101 103 228 276 315 297 2 15 344 7 66 247 284 151 94 101 185 152 151 188 179 177 311 312 243 202 234 92 106 202 114 103 109 119 126 124 119 119 112 103 94 80 66
94 73 56 41 33 31 37 62 101 119 109 75 71 107 198 207 201 157 160 188 176 150 109 61 67 73 4 325 358 352 12 96 88 63 31 44 103 56 348 304 334 21 71 129 153 103 103 236 293 322 351 44 22 307 31 65 208 144 69 106 237 192 119 110 270 10 83 158 261 173 170 72 109 140 140 125 132 141 142 136 123 124 122 113 104 87 76 70
89 79 58 32 25 28 39 68 97 91 75 80 90 186 208 188 195 173 90 107 175 126 109 109 107 118 163 251 306 313 338 43 86 68 70 111 67 41 6 309 322 40 36 99 136 152 134 139 320 347 346 354 347 287 59 53 107 105 111 233 292 33 93 95 337 3 27 231 247 199 193 196 182 190 1 141 176 173 163 145 134 134 126 117 107 93 87 86
94 96 67 25 14 19 37 63 83 75 72 74 83 155 162 143 244 132 46 4 123 88 101 135 174 171 174 171 207 289 320 305 24 57 106 177 29 92 93 305 300 20 342 347 110 98 104 111 301 316 252 312 353 37 332 347 22 100 178 259 71 109 124 73 126 161 233 228 279 296 263 213 189 172 234 209 194 186 176 155 152 163 150 138 130 121 119 111
92 101 53 5 1 11 21 47 86 66 68 85 129 180 180 179 42 36 342 321 85 89 124 163 151 75 130 155 158 251 329 150 138 78 104 165 56 95 101 278 285 326 327 18 114 300 69 112 262 307 315 317 5 44 84 325 341 14 19 356 43 130 166 154 150 157 165 193 258 310 317 288 220 126 174 199 191 181 178 171 175 179 164 157 155 147 144 139
45 84 19 347 357 13 21 50 65 53 67 131 173 179 162 164 129 22 355 6 90 90 144 165 145 105 116 145 150 154 41 75 106 92 90 112 93 85 64 321 295 313 319 8 85 353 26 101 191 300 338 9 30 26 175 252 308 351 14 356 356 2 149 173 291 66 117 156 201 252 289 265 184 94 259 212 186 176 176 175 174 170 159 154 155 151 150 148
33 79 324 343 350 335 22 48 52 52 93 116 131 133 110 132 134 2 358 29 80 94 110 125 125 128 141 137 143 146 76 56 66 78 96 18 70 102 205 160 234 295 324 17 50 32 26 99 141 330 0 39 56 287 270 203 198 149 112 236 203 319 107 134 287 324 75 141 181 181 259 274 202 234 293 229 165 167 172 163 153 150 155 154 153 155 159 158
55 104 305 349 354 128 60 55 30 52 105 123 120 105 77 92 87 356 350 25 62 73 59 83 91 85 121 133 138 132 100 76 39 67 112 175 74 154 249 348 253 253 79 60 346 322 109 100 86 53 341 302 267 288 9 81 117 118 117 134 132 97 98 131 205 256 51 342 327 130 258 279 276 275 305 16 136 149 152 153 151 154 160 161 166 166 161 159
81 158 322 1 7 129 71 60 344 25 65 233 301 28 27 71 66 6 21 31 31 54 47 60 101 81 114 143 122 131 121 107 114 105 115 123 111 218 302 329 290 214 86 75 290 333 70 89 77 21 309 316 313 320 3 41 73 85 31 30 86 75 99 139 178 168 132 280 97 117 263 267 272 285 310 76 110 127 138 150 154 160 177 182 180 178 166 162
117 176 331 11 28 153 89 106 168 80 116 76 54 40 21 56 59 30 49 30 9 85 81 73 140 92 123 101 87 119 131 102 105 100 115 128 207 246 313 336 344 102 99 166 195 341 6 104 95 75 357 340 342 339 336 345 48 100 329 356 76 79 82 108 102 72 57 243 152 147 245 254 275 304 286 131 124 135 158 171 166 172 192 196 187 185 176 162
82 109 296 11 35 74 114 165 146 135 150 106 90 107 53 47 52 87 107 58 30 103 109 116 329 84 93 73 63 55 48 84 135 141 94 106 333 321 340 345 358 65 123 123 97 93 119 122 107 117 140 237 264 260 259 258 232 142 14 10 56 83 94 153 97 77 229 243 147 167 225 261 296 303 236 167 152 164 190 196 195 202 204 197 188 182 177 164
91 54 284 350 23 55 61 33 107 122 155 134 113 134 99 91 228 115 93 76 43 78 79 52 50 74 63 65 69 38 14 39 99 113 102 111 127 315 330 348 359 348 357 51 55 78 104 73 87 133 150 186 190 212 245 178 129 190 203 5 352 73 98 110 104 137 195 164 245 228 192 183 281 267 232 209 189 196 214 211 215 227 218 200 190 179 172 167
111 123 155 337 1 44 36 19 70 106 150 140 126 162 134 130 184 10 52 70 82 86 68 27 23 82 117 113 101 71 5 23 46 82 95 102 131 318 326 6 10 346 358 49 38 72 95 55 72 124 127 198 182 212 301 47 123 186 181 187 238 99 94 111 146 204 169 111 281 258 182 166 251 242 225 231 234 237 239 231 229 232 222 196 178 168 166 165
103 141 149 115 54 83 65 72 109 97 92 94 92 120 126 123 136 128 81 62 55 69 81 43 17 36 147 150 120 113 90 49 40 70 127 162 132 359 350 5 353 349 21 31 359 82 106 108 210 128 55 321 335 344 350 52 102 203 185 194 213 189 158 180 210 210 163 162 240 230 152 240 254 241 231 240 246 251 251 248 240 226 203 174 162 166 172 174
101 104 43 30 92 157 141 116 118 102 89 88 90 117 139 143 159 195 257 59 25 357 74 126 254 5 41 113 109 135 175 138 120 214 187 152 141 86 41 342 311 4 50 43 4 82 108 139 195 126 66 355 337 331 354 57 40 277 241 221 220 221 215 220 231 204 187 235 258 247 273 277 268 237 238 249 248 246 258 265 222 189 178 169 171 182 188 191
149 150 149 59 67 112 78 60 96 99 71 57 87 139 149 146 158 185 347 72 130 300 64 130 157 120 86 99 98 137 199 172 163 197 172 140 148 164 157 185 171 46 37 43 356 18 78 125 155 97 71 340 326 343 20 65 168 246 255 237 217 222 232 239 242 204 198 253 266 259 273 279 272 214 233 251 236 213 246 246 205 190 181 176 183 196 200 203
103 132 143 112 76 46 61 45 76 106 97 5 121 159 170 173 169 149 85 40 163 211 199 144 147 123 69 73 74 92 224 193 166 175 153 142 159 168 162 172 149 101 32 49 2 357 67 111 65 66 73 276 319 13 349 336 315 262 263 240 209 199 210 225 222 196 190 206 211 197 255 264 265 226 254 263 207 199 240 231 211 210 194 185 194 203 206 208
94 85 114 105 84 340 98 66 40 104 161 205 142 156 177 183 170 128 88 26 159 224 216 155 142 113 66 69 73 119 206 156 129 119 119 113 101 102 102 103 114 118 127 109 44 12 96 119 132 94 110 260 303 9 343 348 354 285 263 227 194 188 198 227 241 216 200 173 154 197 229 231 228 177 229 270 252 257 266 241 216 223 211 201 209 211 212 213
Height
799 798 798 797 796 795 795 794 793 792 791 791 790 789 789 788 788 787 787 786 786 785 785 785 785 785 785 785 784 784 783 783 783 783 784 785 785 786 786 786 787 787 787 788 788 788 789 790 791 792 793 794 795 795 796 796 797 800 804 806 806 806 806 802 799 800 798 797 797 796 793 793 795 794 792 793 796 799 800 801 802 802 803 805 806 806 805 804
799 798 797 796 795 795 794 793 792 791 791 790 789 789 788 787 787 786 786 785 785 784 784 784 784 784 784 784 784 783 783 783 783 784 785 785 786 786 786 787 787 787 788 788 788 788 789 791 792 793 794 795 796 796 797 797 798 801 803 805 804 802 799 796 796 797 795 796 797 796 795 793 795 795 792 796 801 801 802 805 804 804 806 807 807 808 807 806
798 797 796 795 795 794 793 792 791 790 790 789 789 788 787 787 786 785 785 784 784 783 783 783 783 784 784 784 784 783 783 783 784 785 785 785 786 786 786 787 787 787 788 788 788 789 790 791 792 794 796 798 798 797 799 799 799 801 802 805 803 797 795 794 794 795 794 795 796 797 795 794 795 794 793 799 805 804 805 806 805 806 810 812 812 811 810 809
797 797 796 795 794 793 792 791 790 790 789 789 788 787 786 786 785 785 784 783 782 782 782 782 782 783 783 784 783 783 783 783 785 786 786 786 786 786 786 786 786 787 788 788 789 790 790 791 792 794 797 800 800 799 800 799 799 801 802 804 800 796 797 795 793 793 793 794 795 797 796 796 795 794 796 800 804 807 807 808 808 809 813 816 816 815 814 814
796 796 795 794 793 792 791 790 790 789 788 788 787 786 785 785 784 784 783 782 781 781 781 781 781 782 782 783 782 783 783 781 785 787 786 786 786 786 787 786 786 786 787 788 789 790 790 791 792 795 798 801 802 800 800 798 798 801 802 801 798 798 799 795 793 794 793 794 795 797 796 797 796 797 800 800 803 810 811 812 813 814 816 818 819 819 818 818
796 795 794 794 792 791 790 790 789 788 788 787 786 785 784 783 783 782 781 780 780 780 780 780 781 780 781 782 782 783 781 781 785 787 786 786 786 786 787 786 786 786 787 788 789 790 790 791 793 796 798 800 801 800 800 798 797 801 801 799 798 798 798 796 794 794 793 793 795 796 796 796 798 801 804 804 808 814 816 817 818 819 820 821 821 821 821 822
795 794 793 792 791 790 789 789 788 787 787 786 785 784 783 782 781 780 780 779 779 779 779 779 780 780 781 782 782 783 783 785 787 786 786 786 786 787 787 786 786 786 787 788 789 790 791 792 793 795 798 799 800 800 799 798 798 801 801 798 796 796 797 795 794 794 793 793 794 795 795 797 799 803 807 811 816 819 819 820 820 822 823 822 823 824 826 827
794 793 792 791 790 789 789 788 787 787 786 785 784 783 782 781 780 779 779 778 778 778 778 778 779 780 780 781 782 783 785 788 787 787 787 787 787 787 787 787 787 787 788 789 789 790 791 792 793 794 796 798 798 798 797 798 800 802 800 797 796 795 795 794 793 794 793 793 794 794 796 798 799 802 809 816 819 821 821 822 823 823 824 824 826 829 830 830
794 793 792 791 790 789 788 787 786 785 784 783 782 781 780 779 778 778 778 778 777 777 777 777 778 779 780 782 781 782 787 788 787 787 787 787 787 787 787 787 787 787 788 789 790 791 791 792 793 793 795 796 797 797 796 798 800 800 798 797 796 795 794 794 794 794 794 794 795 796 798 799 799 802 811 818 820 822 822 823 825 824 826 829 831 833 833 833
793 793 791 790 789 788 787 786 785 784 783 781 781 780 779 778 777 777 777 777 776 776 776 776 778 779 780 781 779 782 788 788 787 788 787 788 788 787 788 787 788 788 789 790 790 791 791 791 791 791 793 795 796 797 797 797 798 797 797 796 797 796 795 795 794 794 795 795 794 796 798 800 801 801 810 820 821 821 822 825 827 827 830 834 835 836 836 835
793 792 790 789 788 787 786 785 784 782 781 780 779 778 777 776 776 776 777 776 776 775 776 777 778 779 781 781 780 784 789 788 787 788 787 788 788 788 788 788 788 789 789 790 790 791 790 790 790 791 793 794 795 797 797 796 797 796 795 796 797 797 795 796 795 795 796 796 795 795 799 802 802 802 809 818 822 821 823 828 830 831 834 836 837 838 838 838
792 791 789 788 787 786 785 784 783 781 780 779 777 776 775 776 776 776 776 776 776 775 776 777 778 780 780 781 784 787 788 788 788 788 787 788 788 788 788 789 789 789 790 790 791 791 790 790 790 792 794 794 795 796 796 796 796 795 795 797 798 796 795 796 796 796 796 795 793 795 801 805 806 809 813 818 822 823 825 830 833 834 837 838 840 840 841 842
791 790 788 787 786 785 784 783 782 780 779 777 776 775 775 776 776 776 776 777 777 776 777 778 779 780 779 784 789 789 788 789 788 788 788 788 788 788 789 789 789 790 790 790 791 790 791 790 790 792 794 794 796 796 795 796 796 795 797 798 799 799 798 795 795 796 796 794 792 796 804 809 812 817 819 821 822 822 827 832 835 837 840 841 842 843 844 845
790 788 787 786 785 784 783 782 781 779 778 776 775 775 775 776 776 777 777 777 777 778 779 778 780 779 780 787 790 788 789 789 789 788 788 788 788 788 788 789 790 790 790 791 791 791 791 791 791 792 794 795 795 795 796 797 797 797 799 801 803 804 800 795 794 796 797 795 792 795 804 809 816 822 821 822 821 821 829 835 837 840 842 844 845 846 848 849
789 787 786 785 783 782 782 781 780 778 776 775 775 775 776 776 776 777 777 777 778 779 779 779 780 779 783 789 790 789 789 789 789 789 789 788 788 788 789 789 790 790 790 791 791 791 791 791 792 794 796 796 796 797 799 800 799 800 802 804 808 807 801 795 794 795 794 794 794 797 805 810 819 827 824 823 823 823 832 838 841 844 845 847 848 850 851 852
788 786 785 784 783 781 780 780 778 777 776 775 775 775 776 776 777 777 777 778 778 779 779 780 780 779 784 790 790 789 790 790 790 789 789 789 789 789 789 789 790 790 790 791 791 791 791 791 794 796 796 797 799 799 801 803 803 803 802 803 807 807 805 800 792 792 792 792 796 797 804 814 824 832 828 826 829 829 836 843 846 848 849 851 853 854 855 856
787 785 784 783 782 780 779 778 777 776 775 775 775 776 777 777 777 778 778 779 779 780 780 780 781 780 786 790 790 791 791 791 790 790 790 789 789 789 789 790 790 791 790 791 791 791 792 794 796 798 798 802 804 801 804 809 807 805 805 805 807 807 807 803 792 792 793 792 798 799 808 825 834 837 835 833 833 834 840 846 849 851 852 854 856 858 859 859
786 785 784 782 781 780 778 777 776 776 775 775 776 777 777 777 778 778 779 780 780 780 780 781 781 780 787 792 792 793 792 791 791 790 790 790 790 789 789 790 790 791 792 793 793 794 795 797 799 801 802 804 804 801 803 806 801 800 805 806 807 807 806 804 795 793 794 793 800 805 818 836 841 840 841 840 838 839 845 849 851 855 856 858 860 861 863 863
785 784 783 782 780 779 778 777 776 775 776 776 776 777 777 778 778 778 779 780 782 783 783 786 785 783 789 793 793 793 792 792 792 791 791 791 790 790 790 791 792 793 794 795 796 796 796 798 801 802 804 804 803 802 799 798 797 798 803 803 802 803 803 801 796 794 796 796 800 805 820 838 844 846 847 847 846 845 850 853 855 859 860 861 863 864 866 866
785 784 782 781 780 779 778 777 776 776 776 776 777 777 777 778 779 783 784 784 788 790 789 790 790 789 792 794 793 793 793 793 792 792 792 791 791 791 791 792 794 795 796 797 798 798 798 799 802 800 801 802 803 803 800 801 804 803 805 804 803 803 801 797 794 795 796 796 805 813 826 843 849 852 854 852 852 853 857 860 861 864 864 866 867 867 869 868
785 783 782 781 780 779 778 777 777 776 776 777 777 777 780 780 780 785 789 790 793 793 792 792 792 791 793 794 794 794 794 793 793 793 792 792 792 792 793 795 796 798 799 800 799 799 800 801 801 799 801 802 802 803 803 804 804 805 808 805 805 805 800 796 794 798 796 797 816 826 832 849 856 858 860 858 858 861 864 866 866 868 869 869 871 870 871 871
784 783 782 780 780 779 778 778 777 777 777 777 778 780 784 784 783 785 788 792 795 793 793 793 792 793 794 794 795 795 795 795 795 794 794 792 792 794 796 797 798 800 802 802 800 802 804 803 800 800 803 803 803 804 803 804 805 807 810 807 807 805 802 799 795 799 797 797 819 828 833 854 862 861 864 863 865 869 868 869 870 871 872 873 874 873 873 873
783 782 781 780 780 779 779 779 778 778 778 777 780 783 785 785 785 785 785 789 795 795 794 794 794 795 795 795 796 795 797 800 800 798 796 794 795 797 797 798 799 800 800 800 800 804 806 804 802 803 803 801 804 807 804 804 807 808 808 807 806 804 803 799 795 800 802 803 817 827 838 857 863 863 867 868 868 872 872 872 873 873 875 876 876 876 876 875
783 782 781 780 780 779 780 780 778 779 779 780 781 783 785 785 785 785 785 789 796 796 796 796 796 797 797 797 797 797 799 803 803 801 798 797 799 800 798 798 800 800 801 800 800 802 804 806 807 804 799 798 800 806 807 804 806 810 810 806 803 804 804 801 800 800 803 810 816 821 829 841 853 860 867 871 870 872 874 874 876 876 877 878 878 878 878 878
784 782 781 780 780 780 780 780 780 781 781 782 782 784 785 784 785 785 783 789 797 798 796 796 797 798 799 799 799 799 800 802 804 803 801 801 801 800 798 799 799 800 803 804 802 803 806 809 809 802 797 799 799 805 814 809 802 809 813 811 809 808 806 804 803 800 803 809 809 808 810 822 847 861 865 871 872 874 876 876 878 879 879 880 880 880 881 880
783 782 782 780 780 780 780 781 782 782 782 783 784 785 784 784 785 784 783 789 798 799 798 798 799 800 800 800 800 799 801 804 804 803 802 801 801 800 799 800 801 801 803 804 805 808 812 811 808 802 799 802 803 807 819 815 803 804 812 816 815 811 810 807 803 803 806 807 804 804 804 815 842 857 863 872 874 876 878 878 881 881 881 883 883 883 883 882
783 782 782 780 781 780 780 782 782 782 783 783 784 784 784 785 785 784 785 789 796 799 800 800 800 801 802 803 803 800 802 805 804 804 804 802 802 800 800 803 802 803 807 804 805 814 816 812 808 806 803 805 807 809 818 818 807 806 813 816 812 809 811 810 806 805 806 806 806 804 804 810 823 842 862 870 871 877 880 880 883 883 884 885 885 886 885 885
783 782 782 782 781 780 781 782 782 783 783 783 785 784 784 785 784 785 784 786 795 802 801 801 801 801 803 804 804 805 807 808 805 805 806 803 803 801 801 808 807 809 813 804 806 820 821 816 815 811 808 809 813 815 820 820 811 809 816 815 811 810 810 810 810 810 809 811 810 803 807 811 816 842 868 866 863 873 880 883 884 885 886 887 887 887 887 887
783 782 782 782 781 781 782 781 782 783 783 784 784 784 786 785 784 787 786 786 797 805 804 803 802 803 806 806 808 812 811 810 810 809 808 806 806 805 806 813 811 810 814 807 810 823 823 821 822 819 819 819 820 822 822 820 814 813 818 815 811 812 811 811 813 812 814 818 815 806 808 811 815 843 866 859 856 867 878 884 886 887 888 888 889 889 888 889
783 783 782 782 782 783 782 782 783 783 783 784 784 785 786 785 786 788 786 788 799 807 806 804 806 809 810 807 810 818 815 814 818 813 810 811 810 812 813 815 813 811 816 815 818 826 825 822 823 824 829 828 824 823 822 822 817 815 816 811 810 814 814 816 816 816 820 822 815 806 806 809 813 838 862 862 862 869 876 883 885 887 889 889 890 890 890 890
783 783 782 782 783 782 782 784 783 783 784 784 785 787 785 787 792 788 787 795 803 806 808 811 815 815 814 813 815 821 819 819 823 816 816 821 819 823 821 814 814 814 817 822 822 826 826 825 827 829 831 830 827 822 821 823 819 817 815 810 813 817 817 821 822 824 827 822 815 811 812 811 809 835 867 874 874 875 874 879 885 888 890 891 891 891 891 890
783 782 782 782 782 783 783 783 784 784 784 784 786 786 784 787 790 787 794 803 803 806 811 814 819 819 819 821 824 829 826 823 828 827 831 836 838 844 842 837 837 822 814 824 826 826 829 831 834 832 830 831 829 821 817 819 819 819 816 813 820 824 827 830 830 833 830 820 820 819 814 814 824 854 880 880 880 881 877 881 886 889 890 891 891 890 891 890
782 783 783 782 783 783 783 783 784 783 783 785 785 785 786 785 787 798 808 808 805 812 817 816 822 825 820 820 826 834 831 828 832 833 838 843 846 852 852 856 859 837 820 827 828 827 829 833 836 833 830 833 833 827 821 822 823 821 818 817 822 828 833 836 837 841 833 820 824 823 813 814 834 869 888 883 884 885 882 885 886 888 890 889 890 890 890 891
783 783 782 782 783 782 783 784 783 784 785 785 783 785 788 786 795 811 815 816 819 819 819 820 823 826 823 825 832 835 831 832 838 839 841 843 844 850 851 854 858 851 839 831 830 832 826 827 837 839 837 836 837 837 834 834 832 828 829 826 822 824 828 829 830 833 830 826 826 821 819 820 831 866 889 885 886 886 884 888 886 887 890 888 890 891 889 892
783 783 782 783 783 782 784 783 783 784 783 784 785 787 785 786 802 814 812 819 825 819 821 826 822 822 828 833 836 836 831 831 840 845 847 849 853 858 860 858 858 859 848 829 830 843 837 836 844 843 843 843 840 842 843 839 833 831 835 831 826 830 832 831 832 833 832 834 831 823 838 862 868 882 893 885 885 889 885 888 888 887 890 889 890 891 890 892
784 783 783 783 784 784 784 783 785 785 784 785 783 785 793 801 811 818 817 821 823 818 820 823 820 821 828 833 835 836 833 833 838 844 851 860 864 866 866 864 863 863 855 839 838 845 841 842 848 843 843 846 844 844 845 841 833 830 834 834 835 841 838 833 834 839 838 835 831 822 839 878 884 879 889 887 885 889 886 887 889 888 890 890 890 892 892 893
784 784 784 785 785 785 784 785 785 784 785 785 781 791 815 826 823 824 825 823 822 821 818 816 819 821 824 830 834 834 833 835 837 839 849 859 861 865 869 865 863 864 865 857 850 849 842 841 850 849 843 845 848 846 845 847 842 835 835 837 841 842 841 839 835 838 842 836 830 818 822 849 855 858 888 896 884 887 887 886 889 889 889 891 891 893 893 893
784 785 785 787 787 786 786 785 785 786 786 787 794 812 829 832 826 826 829 825 822 823 818 814 822 828 828 827 833 842 839 832 835 843 850 854 856 865 871 867 863 865 869 863 854 856 850 840 847 854 848 847 852 844 838 846 848 843 844 846 845 838 836 842 839 838 843 836 829 824 821 837 850 863 889 893 882 885 887 886 889 889 890 891 891 893 893 893
785 785 786 790 788 787 787 785 786 787 783 787 803 818 826 830 829 829 830 828 825 823 818 817 825 832 835 832 835 848 846 835 839 848 848 850 856 865 872 871 865 863 867 864 857 859 856 843 843 854 856 853 855 853 852 855 853 849 848 849 851 847 841 845 843 840 843 836 834 833 824 840 869 881 884 882 879 882 883 886 888 887 888 890 890 893 893 893
786 785 789 791 788 788 789 786 787 788 788 799 814 820 826 831 830 830 830 828 829 825 821 823 826 827 836 843 841 846 851 849 850 852 852 857 861 866 874 876 870 865 865 863 860 862 860 848 843 852 860 858 862 870 874 875 868 859 852 849 852 853 850 851 849 852 853 840 840 841 828 844 880 887 880 878 876 878 881 883 885 886 888 890 890 892 893 893
786 785 789 791 789 790 788 788 799 807 809 818 825 826 828 828 828 831 831 829 832 831 829 831 831 829 835 843 843 845 854 858 860 861 863 865 863 865 873 878 877 872 864 859 860 862 860 852 848 858 870 872 877 882 881 880 878 874 869 867 868 864 855 849 849 864 871 854 849 850 837 851 881 884 879 877 872 876 880 880 884 887 888 889 890 892 892 893
786 786 790 791 790 789 789 799 819 826 822 823 826 827 828 827 830 833 832 831 833 834 835 837 839 841 841 842 845 851 855 859 863 866 867 870 870 870 875 878 879 876 867 862 865 866 866 864 864 875 885 882 880 881 880 881 881 879 879 881 884 880 867 851 844 861 876 870 871 869 854 861 884 885 879 876 873 876 879 880 885 887 888 890 890 891 892 892
788 789 791 791 791 790 791 803 823 830 828 830 833 833 832 832 834 834 834 835 835 835 836 839 843 844 845 847 847 851 855 857 864 868 869 874 876 874 877 877 876 875 870 867 867 866 865 867 871 882 890 885 881 882 882 882 881 878 882 888 887 884 883 875 873 878 873 864 869 867 856 865 882 884 879 877 877 879 880 882 885 886 889 890 889 890 891 891
792 793 793 791 790 790 790 795 811 829 834 834 835 835 835 838 838 837 838 839 840 839 838 843 847 843 848 854 851 855 857 851 859 871 872 873 875 874 877 877 873 871 867 868 870 866 864 866 867 869 873 872 871 874 875 878 883 882 887 892 889 891 894 890 895 893 873 869 876 860 849 867 882 882 880 879 879 880 882 884 884 885 887 887 888 890 890 890
791 792 794 794 791 792 796 800 809 824 833 832 834 837 836 839 842 841 842 844 846 846 843 846 849 847 853 857 854 860 861 851 857 870 872 874 876 876 877 875 873 871 868 869 871 868 871 879 871 853 842 837 838 851 867 878 886 889 891 892 889 893 892 884 888 883 868 882 892 862 850 873 885 881 879 880 881 880 882 884 884 884 884 885 887 888 889 891
788 788 790 794 797 801 809 815 814 818 827 827 829 838 839 838 843 843 842 844 846 848 847 847 849 848 850 853 852 859 866 862 862 866 871 876 875 877 880 876 874 872 868 869 872 875 882 892 890 870 854 850 855 869 884 886 885 887 890 892 891 894 894 889 887 880 875 887 887 871 874 882 880 880 880 880 881 880 880 883 883 883 882 883 886 886 888 890
787 788 794 794 795 802 810 818 817 817 821 819 821 834 839 837 842 842 841 844 847 848 850 853 853 845 843 848 850 858 869 869 864 867 875 880 878 880 881 878 875 873 870 871 875 877 876 882 895 892 884 889 894 895 897 892 887 888 890 891 892 892 894 892 883 880 887 882 869 879 899 887 871 876 879 879 881 880 879 881 879 880 881 882 885 885 887 889
788 794 807 802 795 800 805 810 818 820 820 821 828 838 839 838 841 840 840 845 847 848 846 847 854 852 850 850 845 853 867 866 866 876 880 879 881 879 877 879 878 874 873 875 877 878 873 878 899 902 895 903 908 903 901 897 894 897 895 893 894 893 893 893 888 890 894 877 863 885 905 889 875 879 879 878 881 879 878 878 877 879 880 882 885 885 887 889
796 800 812 811 805 812 815 816 821 820 820 825 832 838 837 835 840 848 852 847 842 849 846 839 848 858 860 858 848 849 857 850 854 875 880 877 880 878 874 876 878 878 877 875 880 884 879 883 900 902 896 903 908 905 906 904 900 901 899 896 897 896 895 894 893 896 897 886 882 895 902 891 881 880 880 878 877 877 877 877 876 877 879 881 884 884 885 887
792 792 803 808 812 819 821 821 820 816 821 827 826 835 843 837 838 853 862 851 837 844 846 841 851 863 864 861 851 848 856 853 851 864 872 872 875 876 873 872 876 880 879 878 883 884 878 883 899 900 892 897 908 908 907 907 905 903 900 900 901 900 901 900 898 899 899 895 894 897 898 890 877 873 876 875 874 877 876 874 875 876 878 880 881 883 883 883
787 788 792 797 809 819 817 822 824 813 814 822 824 835 844 839 841 851 860 863 854 847 848 847 855 865 864 861 856 855 864 867 861 862 867 867 867 871 872 874 877 876 877 883 885 882 880 887 900 896 876 883 908 910 902 904 906 899 893 896 901 902 899 897 896 895 893 890 892 893 889 880 872 871 873 872 873 875 874 873 874 874 876 879 878 879 880 880
788 790 791 789 803 820 819 822 826 813 810 824 833 838 838 838 849 850 845 858 867 860 859 858 856 859 860 860 863 864 867 870 869 870 873 872 872 875 876 878 879 876 879 886 888 891 890 884 891 890 868 875 908 913 904 900 882 865 867 877 888 896 896 893 892 891 888 885 885 881 872 869 871 873 872 872 873 873 872 872 873 873 875 877 876 877 877 878